This demonstration page uses our WeatherBlox Daily Observations layout. Learn more.

Left ArrowRight Arrow

40.92945, -100.16068

Hourly Observations for September 27, 2020

Temp ( °F °C ) Dew Point ( °F °C ) Humidity (%) Winds ( mph kmh ) Pressure ( in mb ) Visibility ( mi km ) Precip ( " mm )
12:15 am 00:15 Clear 60 15.3 45 7.3 59 59 Calm 29.81 1010 10 16 0.00 0.00
12:35 am 00:35 Clear 61 16.2 44 6.5 53 53 NNE 3 6 29.81 1009 10 16 0.00 0.00
12:55 am 00:55 Clear 63 17 42 5.8 48 48 Calm 29.80 1009 10 16 0.00 0.00
1:15 am 01:15 Clear 63 17 42 5.6 47 47 Calm 29.81 1009 10 16 0.00 0.00
1:35 am 01:35 Clear 62 16.7 42 5.6 48 48 Calm 29.81 1010 10 16 0.00 0.00
1:55 am 01:55 Clear 60 15.8 44 6.5 54 54 N 7 11 29.81 1009 10 16 0.00 0.00
2:15 am 02:15 Clear 60 15.6 43 6.2 54 54 NNW 7 11 29.83 1010 10 16 0.00 0.00
2:35 am 02:35 Clear 59 15.2 43 6.1 55 55 NNE 3 6 29.81 1010 10 16 0.00 0.00
2:55 am 02:55 Partly Cloudy 60 15.4 42 5.8 53 53 N 5 7 29.80 1009 10 16 0.00 0.00
3:15 am 03:15 Partly Cloudy 59 15.1 42 5.6 53 53 N 6 9 29.82 1010 10 16 0.00 0.00
3:35 am 03:35 Clear 62 16.5 40 4.4 45 45 N 10 17 29.80 1009 10 16 0.00 0.00
3:55 am 03:55 Clear 61 16.2 39 4 44 44 NNE 8 13 29.80 1009 10 16 0.00 0.00
4:15 am 04:15 Clear 60 15.6 39 4.1 47 47 NNE 8 13 29.81 1010 10 16 0.00 0.00
4:35 am 04:35 Clear 58 14.7 40 4.3 50 50 NNE 7 11 29.82 1010 10 16 0.00 0.00
4:55 am 04:55 Clear 58 14.2 41 4.8 53 53 NNE 5 7 29.83 1010 10 16 0.00 0.00
5:15 am 05:15 Clear 57 14 40 4.7 54 54 NE 6 9 29.84 1011 10 16 0.00 0.00
5:35 am 05:35 Clear 56 13.4 41 5.1 57 57 NE 5 7 29.86 1011 10 16 0.00 0.00
5:55 am 05:55 Partly Cloudy 56 13.2 41 5.1 58 58 NNE 6 9 29.86 1011 10 16 0.00 0.00
6:15 am 06:15 Mostly Cloudy 56 13.2 41 5.1 58 58 NNE 6 9 29.87 1012 10 16 0.00 0.00
6:35 am 06:35 Cloudy 56 13.6 41 5.2 57 57 NNE 6 9 29.88 1012 10 16 0.00 0.00
6:55 am 06:55 Cloudy 57 14.1 41 5.1 55 55 NNE 7 11 29.88 1012 10 16 0.00 0.00
7:15 am 07:15 Cloudy 57 13.8 42 5.6 58 58 N 5 7 29.90 1012 10 16 0.00 0.00
7:35 am 07:35 Cloudy 56 13.6 43 6 60 60 NNE 3 6 29.90 1012 10 16 0.00 0.00
7:55 am 07:55 Cloudy with Light Rain 55 13 44 6.8 66 66 N 3 6 29.91 1013 10 16 0.00 0.00
8:15 am 08:15 Cloudy with Light Rain 55 12.7 45 7.3 70 70 NNE 9 15 29.93 1013 10 16 0.00 0.00
8:35 am 08:35 Cloudy with Light Rain 53 11.7 44 6.8 72 72 N 12 19 29.96 1014 5 8 0.01 0.25
8:55 am 08:55 Cloudy with Light Rain 52 11.1 45 7.4 78 78 NNW 13 20 29.98 1015 10 16 0.02 0.51
9:15 am 09:15 Cloudy with Drizzle 52 11.2 45 7.3 77 77 NNW 15 24 29.99 1016 10 16 0.00 0.00
9:35 am 09:35 Cloudy with Light Rain 54 12.2 43 5.9 66 66 NNW 20 31 30.00 1016 10 16 0.00 0.00
9:55 am 09:55 Cloudy 55 12.7 41 5.1 60 60 NNE 13 20 30.01 1016 10 16 0.00 0.00
10:15 am 10:15 Cloudy 54 12.3 43 6.1 66 66 N 9 15 30.02 1017 10 16 0.00 0.00
10:35 am 10:35 Cloudy 55 12.8 42 5.8 63 63 NNW 8 13 30.03 1017 10 16 0.00 0.00
10:55 am 10:55 Cloudy 55 12.5 45 7 69 69 NW 6 9 30.05 1018 10 16 0.00 0.00
11:15 am 11:15 Cloudy 56 13.5 42 5.3 58 58 N 10 17 30.05 1018 10 16 0.00 0.00
11:35 am 11:35 Cloudy 56 13.2 43 6 62 62 NNW 9 15 30.05 1018 10 16 0.00 0.00
11:55 am 11:55 Cloudy 56 13.5 39 3.9 53 53 NNW 15 24 30.05 1018 10 16 0.00 0.00
12:15 pm 12:15 Cloudy 57 14.1 39 4 51 51 NNW 21 33 30.05 1018 10 16 0.00 0.00
12:35 pm 12:35 Cloudy 58 14.5 39 3.8 49 49 NNW 17 28 30.05 1018 10 16 0.00 0.00
12:55 pm 12:55 Cloudy 58 14.5 39 3.9 49 49 NNW 15 24 30.05 1018 10 16 0.00 0.00
1:15 pm 13:15 Cloudy 58 14.5 39 3.8 49 49 NW 12 19 30.03 1017 10 16 0.00 0.00
1:35 pm 13:35 Partly Cloudy 59 15 39 3.9 48 48 WNW 12 19 30.02 1016 10 16 0.00 0.00
1:55 pm 13:55 Partly Cloudy 60 15.5 39 3.9 46 46 WNW 8 13 29.99 1016 10 16 0.00 0.00
2:15 pm 14:15 Partly Cloudy 62 16.6 39 3.7 42 42 WNW 13 20 29.98 1015 10 16 0.00 0.00
2:35 pm 14:35 Sunny 62 16.7 35 1.7 37 37 NNW 20 31 29.98 1015 10 16 0.00 0.00
2:55 pm 14:55 Sunny 63 17.2 36 2.3 37 37 NW 14 22 29.97 1015 10 16 0.00 0.00
3:15 pm 15:15 Sunny 65 18.1 35 1.9 34 34 NW 21 33 29.95 1014 10 16 0.00 0.00
3:35 pm 15:35 Partly Cloudy 66 19 35 1.4 31 31 NNW 21 33 29.94 1014 10 16 0.00 0.00
3:55 pm 15:55 Mostly Cloudy 66 19 35 1.6 31 31 NNW 17 28 29.94 1014 10 16 0.00 0.00
4:15 pm 16:15 Partly Cloudy 67 19.3 33 0.3 28 28 NW 23 37 29.95 1014 10 16 0.00 0.00
4:35 pm 16:35 Mostly Cloudy 67 19.2 31 -0.3 27 27 NNW 18 30 29.95 1014 10 16 0.00 0.00
4:55 pm 16:55 Partly Cloudy 67 19.4 30 -1.1 25 25 NNW 20 31 29.95 1014 10 16 0.00 0.00
5:15 pm 17:15 Sunny 67 19.6 29 -1.9 23 23 NNW 16 26 29.94 1014 10 16 0.00 0.00
5:35 pm 17:35 Partly Cloudy 67 19.5 30 -1 25 25 NNW 17 28 29.94 1014 10 16 0.00 0.00
5:55 pm 17:55 Partly Cloudy 66 19.1 29 -1.5 25 25 N 18 30 29.94 1014 10 16 0.00 0.00
6:15 pm 18:15 Sunny 65 18.5 28 -2.3 24 24 NNW 20 31 29.96 1014 10 16 0.00 0.00
6:35 pm 18:35 Partly Cloudy 65 18.2 28 -2.4 25 25 NNW 16 26 29.97 1015 10 16 0.00 0.00
6:55 pm 18:55 Sunny 64 17.7 26 -3.1 24 24 NNW 12 19 29.97 1015 10 16 0.00 0.00
7:15 pm 19:15 Sunny 62 16.8 27 -2.9 26 26 NNW 13 20 29.99 1016 10 16 0.00 0.00
7:35 pm 19:35 Clear 60 15.7 28 -2.3 29 29 NNW 14 22 29.99 1016 10 16 0.00 0.00
7:55 pm 19:55 Clear 60 15.3 28 -2.1 30 30 NNW 13 20 30.01 1016 10 16 0.00 0.00
8:15 pm 20:15 Clear 58 14.6 29 -1.7 33 33 NNW 12 19 30.02 1017 10 16 0.00 0.00
8:35 pm 20:35 Clear 56 13.2 30 -1 38 38 NNW 9 15 30.04 1017 10 16 0.00 0.00
8:55 pm 20:55 Clear 54 12 31 -0.5 42 42 NNW 8 13 30.07 1018 10 16 0.00 0.00
9:15 pm 21:15 Clear 52 11.1 32 -0.2 46 46 NW 9 15 30.09 1019 10 16 0.00 0.00
9:35 pm 21:35 Clear 49 9.4 32 0 52 52 NW 9 15 30.12 1020 10 16 0.00 0.00
9:55 pm 21:55 Clear 48 8.7 32 0.2 56 56 NNW 7 11 30.13 1020 10 16 0.00 0.00
10:15 pm 22:15 Clear 47 8.1 32 0 57 57 NW 8 13 30.15 1021 10 16 0.00 0.00
10:35 pm 22:35 Clear 47 8.1 32 0.2 58 58 NW 8 13 30.15 1021 10 16 0.00 0.00
10:55 pm 22:55 Clear 47 8.3 32 0.1 57 57 WNW 9 15 30.15 1021 10 16 0.00 0.00
11:15 pm 23:15 Clear 46 8 33 0.5 59 59 WNW 9 15 30.16 1021 10 16 0.00 0.00
11:35 pm 23:35 Clear 46 7.6 33 0.5 61 61 WNW 8 13 30.16 1021 10 16 0.00 0.00
11:55 pm 23:55 Clear 47 8.2 32 0 57 57 WNW 12 19 30.17 1022 10 16 0.00 0.00

Powered by AerisWeather